Location: NJAA Observatory
(40.6819°N, 74.8979°W)
Time: 02:02:56
(UTC-04:00)

Daily predictions for brighter satellites

Satellite Brightness Start Highest point End
(mag) Time Altitude Azimuth Time Altitude Azimuth Time Altitude Azimuth
Cosmos 2278 Rocket 4.1 00:09:06 10° NNW 00:11:26 25° N 00:11:26 25° N
Cosmos 2219 Rocket 4.4 01:01:06 21° N 01:01:06 21° N 01:03:16 10° N
SL-16 R/B 4.3 01:24:12 23° NNE 01:24:12 23° NNE 01:26:12 10° NNE
Cosmos 2237 Rocket 4.3 01:25:05 22° N 01:25:05 22° N 01:27:24 10° N
Cosmos 2333 Rocket 4.3 01:33:28 21° NNW 01:33:28 21° NNW 01:36:03 10° N
ATLAS 3B R/B 3.9 01:39:38 39° NNW 01:39:38 39° NNW 01:45:46 10° NNE
CZ-4C R/B 3.9 02:13:23 30° N 02:13:23 30° N 02:16:51 10° NNE
SL-16 R/B 4.3 02:27:35 19° E 02:30:12 25° ENE 02:35:07 10° N
Cosmos 2369 Rocket 3.8 02:33:46 10° NNW 02:36:21 28° N 02:36:21 28° N
Cosmos 1943 Rocket 3.6 02:41:48 10° N 02:46:57 34° ENE 02:47:45 33° ENE
NOSS 3-2 (A) 4.3 02:56:18 45° NNW 02:56:18 45° NNW 03:01:47 10° NNE
CENTAUR R/B 3.3 03:00:45 43° E 03:00:45 43° E 03:06:26 10° NE
ARIANE 5 R/B 3.9 02:55:36 10° NNE 02:59:36 34° ENE 02:59:36 34° ENE
SL-16 R/B 4.5 03:06:05 14° NW 03:06:05 14° NW 03:08:24 10° NNW
NOSS 3-2 (C) 4.2 03:15:24 44° NW 03:15:24 44° NW 03:21:25 10° NNE
Okean O Rocket 4.5 03:14:12 10° ENE 03:15:05 10° E 03:15:58 10° E
ATLAS 5 CENTAUR R/B 2.8 03:20:45 46° NNE 03:20:45 46° NNE 03:24:28 10° NNE
ADEOS 4.1 03:20:32 10° NNE 03:24:37 56° N 03:24:37 56° N
Cosmos 2315 Rocket 3.9 03:31:06 87° SE 03:31:10 87° E 03:37:30 10° N
CZ-2D R/B 2.3 03:34:10 10° NNE 03:39:23 64° ESE 03:39:27 64° ESE
SL-27 R/B 4.5 03:46:22 28° NNE 03:46:22 28° NNE 03:48:14 10° NNE
BREEZE-M DEB (TANK) 3.5 03:49:54 69° NNW 03:50:17 75° NNE 03:57:57 10° ESE
Cosmos 1733 Rocket 4.2 03:54:50 10° NNW 03:57:26 34° NNW 03:57:26 34° NNW
Resurs 1-4 Rocket 1.9 03:54:25 10° NNE 03:59:43 82° WNW 04:00:03 77° SW
CZ-2D R/B 3.8 04:03:36 10° NNE 04:07:55 63° E 04:08:22 58° SE
Cosmos 1709 Rocket 4.4 04:04:35 10° NNW 04:10:20 43° W 04:10:20 43° W
EO 1 Del DPAF 3.9 04:11:54 48° NNW 04:11:54 48° NNW 04:14:47 10° NNW
SL-16 R/B 2.6 04:12:40 51° SW 04:13:26 54° W 04:19:30 10° NNW
UNKNOWN OBJECT B 3.1 04:11:31 10° N 04:14:32 56° N 04:14:32 56° N
SeaSat 1 3.5 04:11:47 10° SE 04:16:27 45° ENE 04:21:09 10° NNW
Cosmos 407 Rocket 4.2 04:15:08 27° SSE 04:17:43 49° ESE 04:22:49 10° NNE
Aureole 3 Rocket 4.2 04:14:17 15° S 04:19:34 57° E 04:24:08 10° NNE
USA 234 3.2 04:15:01 10° NE 04:21:36 87° NW 04:24:16 40° SW
AVUM R/B 4.0 04:22:49 48° E 04:22:49 48° E 04:25:48 10° NE
Cosmos 1862 3.1 04:21:01 10° N 04:25:00 80° W 04:25:00 80° W
Cosmos 1408 2.5 04:21:43 10° N 04:25:20 81° NNW 04:25:20 81° NNW
Cosmos 1455 4.2 04:29:16 18° NW 04:29:16 18° NW 04:30:48 10° NNW
COSMOS 2406 3.3 04:27:10 45° WSW 04:28:45 62° WNW 04:34:29 10° NNE
IRS-1C Rocket 4.3 04:23:29 10° NNE 04:28:46 70° ESE 04:32:04 23° S
Cosmos 1943 Rocket 3.1 04:25:35 10° NW 04:29:08 29° WNW 04:29:08 29° WNW
Cosmos 1908 Rocket 3.4 04:27:37 10° NNW 04:31:58 66° W 04:32:42 54° SW
CZ-4B R/B 3.6 04:29:16 10° NNE 04:34:30 60° ESE 04:39:01 14° S
Abrixas rocket 2.5 04:34:10 56° NNW 04:34:36 64° NNE 04:37:55 10° ESE
Cosmos 2074 Rocket 3.9 04:28:29 10° NNW 04:34:39 65° W 04:39:22 18° S
Cosmos 2327 Rocket 4.4 04:30:19 10° NNW 04:36:22 64° W 04:41:19 16° S
IRS-1D 4.4 04:33:22 10° N 04:37:57 31° WNW 04:38:39 30° W
ARIANE 5 R/B 3.5 04:34:56 10° N 04:39:21 28° WNW 04:39:56 28° WNW
PSLV R/B 4.4 04:41:19 32° SSE 04:41:19 32° SSE 04:43:36 10° SE
Cosmos 2154 Rocket 4.2 04:36:17 10° N 04:42:39 73° E 04:48:58 10° SSE
Cosmos 2184 Rocket 4.1 04:37:05 10° NNW 04:43:19 58° W 04:48:43 14° SSW
CZ-2C R/B 3.5 04:39:07 10° SSE 04:43:33 88° WSW 04:48:01 10° NNW
ERS-2 4.4 04:41:25 10° NNW 04:42:31 14° NW 04:42:31 14° NW
BREEZE-M DEB (TANK) 2.7 04:43:40 63° S 04:43:53 67° SE 04:48:04 10° ENE
Cosmos 2082 Rocket 4.3 04:44:51 10° SSE 04:49:20 24° ESE 04:53:50 10° NE
Cosmos 1703 Rocket 3.7 04:48:19 36° SW 04:49:49 55° W 04:54:14 10° N
Cosmos 1933 3.9 04:50:16 36° W 04:50:38 37° WNW 04:54:29 10° N
CENTAUR R/B 3.4 04:47:56 25° W 04:50:52 38° NW 04:57:20 10° NNE
ARGOS Delta rocket 3.9 04:46:38 10° N 04:50:52 49° WNW 04:52:21 34° SW
Okean O Rocket 1.6 04:47:28 10° N 04:51:55 70° WNW 04:54:18 27° SSW
Cosmos 2221 Rocket 3.7 04:51:54 33° SW 04:53:38 55° W 04:57:59 10° N
Cosmos 1656 Rocket 3.8 04:48:35 10° NW 04:53:44 46° WSW 04:58:53 10° S
Cosmos 1610 Rocket 4.5 04:49:34 10° NNW 04:55:50 65° W 05:02:00 10° S
Atlas Centaur 2 3.0 04:56:55 18° S 04:57:53 20° S 05:01:16 10° ESE
Cosmos 1825 3.0 04:55:05 10° NNW 04:58:11 30° W 04:58:11 30° W
PSLV R/B 4.2 04:59:14 10° NNE 05:03:33 56° E 05:07:52 10° S
Okean-O 3.5 05:00:12 10° NNE 05:04:32 50° E 05:08:50 10° S
ATLAS 5 CENTAUR R/B 4.0 05:02:18 11° WNW 05:04:54 15° NNW 05:08:03 10° N
Cosmos 1190 Rocket 4.3 05:04:38 24° SW 05:07:29 47° WNW 05:12:30 10° N
CZ-4B R/B 2.7 05:04:50 10° N 05:08:32 61° WNW 05:11:13 18° SSW
Cosmos 2341 Rocket 4.0 05:03:49 10° N 05:10:10 88° W 05:16:32 10° S
Okean 1-7 3.3 05:08:55 20° SSW 05:11:40 49° W 05:15:55 10° N
Meteor 2-13 Rocket 4.5 05:05:47 10° N 05:11:52 85° E 05:17:56 10° S
Cosmos 962 Rocket 4.5 05:09:17 10° N 05:15:38 81° W 05:21:51 10° S
Cosmos 2151 Rocket 3.7 05:11:19 10° N 05:15:43 76° E 05:20:06 10° SSE
USA 129 2.3 05:15:32 27° SE 05:16:02 39° ENE 05:17:33 10° N
COSMOS 2487 3.3 05:15:19 24° WSW 05:16:43 34° WNW 05:20:03 10° N
CZ-2D R/B 3.7 05:15:40 10° NNW 05:18:54 17° WNW 05:20:47 14° W
Cosmos 1954 Rocket 3.9 05:19:39 10° SSW 05:24:48 72° WNW 05:30:03 10° NNE
Thor Agena Rocket 3.6 05:22:30 10° S 05:27:32 55° WSW 05:32:41 10° NNW
Meteor 1-31 Rocket 4.0 05:25:37 10° NNE 05:29:16 43° E 05:32:55 10° S
Cosmos 1356 3.6 05:30:37 10° N 05:34:11 80° E 05:37:42 10° SSE
Cosmos 2218 Rocket 4.3 05:30:33 10° N 05:36:42 74° E 05:42:51 10° SSE
Okean 1 Rocket 4.4 05:33:47 10° N 05:37:59 45° ENE 05:42:11 10° SSE
Resurs 1-4 Rocket 4.1 05:37:19 10° NW 05:38:41 11° WNW 05:40:04 10° WNW
Meteor 1-25 Rocket 4.2 05:33:33 10° NNW 05:39:05 69° W 05:44:37 10° S
Okean 2 Rocket 4.1 05:35:26 10° NNW 05:39:10 26° W 05:42:54 10° SW
Cosmos 1697 Rocket 4.1 05:35:21 10° N 05:40:41 42° ENE 05:45:59 10° SE
Meteor 1-20 Rocket 4.2 05:35:18 10° NNW 05:41:02 79° W 05:46:50 10° S
ADEOS II 2.1 05:41:23 10° N 05:46:37 67° WNW 05:51:48 10° SSW
Cosmos 1674 Rocket 3.5 05:42:13 10° S 05:46:39 82° W 05:51:05 10° N
Meteor 2-10 Rocket 4.0 05:44:42 10° SSW 05:50:19 51° WNW 05:55:50 10° N
Cosmos 1850 Rocket 4.1 05:45:43 10° SSW 05:51:00 85° WNW 05:56:22 10° NNE
MOS 1 Rocket 3.4 05:47:32 10° NNE 05:51:49 71° ESE 05:56:08 10° S
Meteor PRIRODA 3.8 05:48:19 10° N 05:52:01 54° WNW 05:55:42 10° SSW
SeaSat 1 3.5 05:50:12 10° SSW 05:54:07 24° WSW 05:58:04 10° NW
Cosmos 2278 3.8 05:51:23 10° NNW 05:56:57 54° WSW 06:02:28 10° S
GPS 2-05 Rocket1 3.8 05:55:04 10° WSW 05:58:10 33° S 06:01:11 10° ESE
Okean 3 4.4 05:56:40 10° S 06:00:48 53° E 06:04:56 10° NNE
